Location: Ku?niki
(51.4449°N, 17.8974°E)
Time: 07:03:09
(UTC+00:00)

USA 234 - Pass Details

Date: 18 September 2020
Orbit: 1102 x 1106 km, 123.0° (Epoch: 16 October)

Event Time Altitude Azimuth Distance (km) Brightness Sun altitude
Rises 20:14:41 0° 60° (ENE) 3,927 6.0 -28.6°
Enters shadow 20:16:06 - 60° (ENE) 3,381 5.7 -28.7°
Exits shadow 20:19:21 23° 61° (ENE) 2,155 4.6 -29.1°
Maximum altitude 20:23:45 88° 332° (NNW) 1,110 3.1 -29.5°
Drops below altitude 10° 20:30:19 10° 244° (WSW) 2,961 5.6 -30.2°
Sets 20:32:47 0° 244° (WSW) 3,918 6.3 -30.4°
